Location: Lombard
(41.8800°N, 88.0080°W)
Time: 12:18:25
(UTC-06:00)

Transit 4A - Pass Details

Date: 02 December 2023
Orbit: 870 x 973 km, 66.8° (Epoch: 02 March)

Event Time Altitude Azimuth Distance (km) Brightness Sun altitude
Rises 20:13:09 0° 204° (SSW) 3,651 11.2 -42.4°
Enters shadow 20:13:39 - 204° (SSW) 3,468 11.0 -42.5°
Reaches altitude 10° 20:15:42 10° 204° (SSW) 2,710 - -42.9°
Maximum altitude 20:22:03 81° 119° (ESE) 987 - -44.0°
Drops below altitude 10° 20:28:24 10° 32° (NNE) 2,702 - -45.2°
Sets 20:30:56 0° 32° (NNE) 3,640 - -45.7°
